LHX2442 EDDK-EDDM

Flight info

Callsign LHX2442
Flight time N/A
Altitude 31000
Route KUMIK2Q/13L KUMIK L603 KOSEK Z74 HAREM T104 ROKIL ROKIL1A
Aircraft A319/M-SDE3FGHIRWY/LB1

Departure

Time 2026-04-22 19:18
Airport Cologne Bonn Airport (EDDK)

Arrival

Time N/A
Airport Munich Airport (EDDM)
Time Latitude Longitude Altitude Speed Heading
2026-04-22 18:31 50.88149 7.11995 233 ft 0 kts 216°
2026-04-22 18:50 50.88150 7.11996 232 ft 1 kts 216°
2026-04-22 18:50 50.88170 7.12016 232 ft 4 kts 201°
2026-04-22 18:51 50.88196 7.12025 232 ft 4 kts 172°
2026-04-22 18:51 50.88219 7.12010 237 ft 3 kts 128°
2026-04-22 18:51 50.88219 7.12009 237 ft 0 kts 127°
2026-04-22 18:57 50.88219 7.12010 232 ft 1 kts 127°
2026-04-22 18:57 50.88218 7.12043 232 ft 5 kts 69°
2026-04-22 18:57 50.88232 7.12119 232 ft 8 kts 104°
2026-04-22 18:57 50.88184 7.12186 232 ft 10 kts 132°
2026-04-22 18:58 50.88151 7.12286 232 ft 10 kts 92°
2026-04-22 18:58 50.88149 7.12398 232 ft 11 kts 120°
2026-04-22 18:58 50.88095 7.12485 232 ft 11 kts 137°
2026-04-22 18:58 50.88072 7.12520 233 ft 0 kts 137°
2026-04-22 19:01 50.88070 7.12522 232 ft 1 kts 137°
2026-04-22 19:02 50.88066 7.12528 232 ft 1 kts 137°
2026-04-22 19:02 50.88060 7.12537 232 ft 2 kts 136°
2026-04-22 19:02 50.88045 7.12559 232 ft 3 kts 137°
2026-04-22 19:02 50.88026 7.12587 232 ft 4 kts 137°
2026-04-22 19:03 50.88010 7.12611 232 ft 0 kts 137°
2026-04-22 19:05 50.88008 7.12614 232 ft 1 kts 137°
2026-04-22 19:05 50.88003 7.12620 233 ft 1 kts 137°
2026-04-22 19:05 50.87995 7.12632 233 ft 2 kts 137°
2026-04-22 19:05 50.87985 7.12653 232 ft 3 kts 120°
2026-04-22 19:06 50.87983 7.12680 233 ft 1 kts 88°
2026-04-22 19:06 50.87983 7.12681 233 ft 0 kts 88°
2026-04-22 19:09 50.87985 7.12701 234 ft 6 kts 76°
2026-04-22 19:09 50.87993 7.12740 238 ft 4 kts 71°
2026-04-22 19:09 50.87999 7.12765 237 ft 0 kts 71°
2026-04-22 19:17 50.88001 7.12775 237 ft 7 kts 74°
2026-04-22 19:17 50.88010 7.12914 239 ft 15 kts 87°
2026-04-22 19:17 50.87956 7.13042 239 ft 18 kts 137°
2026-04-22 19:18 50.87705 7.13409 239 ft 88 kts 136°
2026-04-22 19:18 50.87096 7.14332 253 ft 150 kts 140°
2026-04-22 19:18 50.86268 7.15446 807 ft 154 kts 136°
2026-04-22 19:18 50.85454 7.16544 1558 ft 154 kts 135°
2026-04-22 19:19 50.84644 7.17687 2159 ft 162 kts 133°
2026-04-22 19:19 50.83759 7.18968 2550 ft 184 kts 134°
2026-04-22 19:19 50.82757 7.20411 2994 ft 203 kts 135°
2026-04-22 19:19 50.81851 7.22129 3657 ft 206 kts 117°
2026-04-22 19:20 50.81429 7.24298 4389 ft 208 kts 97°
2026-04-22 19:20 50.81228 7.26672 4843 ft 230 kts 97°
2026-04-22 19:20 50.81002 7.29318 5377 ft 253 kts 97°
2026-04-22 19:20 50.80759 7.32128 6223 ft 262 kts 97°
2026-04-22 19:21 50.80538 7.35018 7160 ft 268 kts 91°
2026-04-22 19:21 50.80637 7.37969 8105 ft 270 kts 85°
2026-04-22 19:21 50.80776 7.40940 9087 ft 272 kts 84°
2026-04-22 19:21 50.80917 7.43947 9948 ft 277 kts 84°
2026-04-22 19:22 50.81060 7.46988 10245 ft 278 kts 84°
2026-04-22 19:22 50.81200 7.50052 10333 ft 291 kts 84°
2026-04-22 19:22 50.81355 7.53441 10662 ft 315 kts 84°
2026-04-22 19:22 50.81511 7.56893 11359 ft 323 kts 84°
2026-04-22 19:23 50.81671 7.60458 12182 ft 327 kts 84°
2026-04-22 19:23 50.81831 7.64069 13014 ft 331 kts 84°
2026-04-22 19:23 50.81992 7.67711 13843 ft 335 kts 84°
2026-04-22 19:23 50.82154 7.71409 14602 ft 338 kts 84°
2026-04-22 19:24 50.82317 7.75140 15334 ft 342 kts 84°
2026-04-22 19:24 50.82478 7.78898 16061 ft 345 kts 84°
2026-04-22 19:24 50.82641 7.82706 16778 ft 348 kts 84°
2026-04-22 19:24 50.82804 7.86549 17493 ft 352 kts 84°
2026-04-22 19:25 50.82966 7.90433 18203 ft 356 kts 84°
2026-04-22 19:25 50.83128 7.94357 18864 ft 359 kts 84°
2026-04-22 19:25 50.83292 7.98314 19484 ft 362 kts 84°
2026-04-22 19:25 50.83403 8.02311 20111 ft 366 kts 89°
2026-04-22 19:26 50.83082 8.06334 20725 ft 373 kts 101°
2026-04-22 19:26 50.82244 8.10238 21361 ft 379 kts 112°
2026-04-22 19:26 50.80916 8.13874 22006 ft 384 kts 121°
2026-04-22 19:26 50.79431 8.17390 22660 ft 386 kts 121°
2026-04-22 19:27 50.77934 8.20928 23300 ft 389 kts 121°
2026-04-22 19:27 50.76430 8.24481 23903 ft 391 kts 121°
2026-04-22 19:27 50.74910 8.28066 24406 ft 393 kts 121°
2026-04-22 19:27 50.73382 8.31658 24894 ft 396 kts 121°
2026-04-22 19:28 50.71841 8.35282 25377 ft 398 kts 121°
2026-04-22 19:28 50.70120 8.38737 25838 ft 404 kts 130°
2026-04-22 19:28 50.68018 8.41734 26295 ft 410 kts 140°
2026-04-22 19:28 50.65589 8.44142 26752 ft 416 kts 149°
2026-04-22 19:29 50.63027 8.46285 27202 ft 419 kts 149°
2026-04-22 19:29 50.60447 8.48454 27654 ft 421 kts 148°
2026-04-22 19:29 50.57854 8.50642 28105 ft 424 kts 148°
2026-04-22 19:29 50.55247 8.52840 28544 ft 427 kts 148°
2026-04-22 19:30 50.53509 8.54304 28834 ft 429 kts 148°
2026-04-22 19:30 50.49972 8.57281 29404 ft 432 kts 148°
2026-04-22 19:30 50.47315 8.59516 29822 ft 435 kts 148°
2026-04-22 19:30 50.44595 8.61654 30212 ft 440 kts 154°
2026-04-22 19:31 50.41688 8.63229 30555 ft 445 kts 160°
2026-04-22 19:31 50.38707 8.64628 30857 ft 448 kts 160°
2026-04-22 19:31 50.35709 8.66029 31145 ft 452 kts 160°
2026-04-22 19:31 50.32679 8.67446 31308 ft 457 kts 160°
2026-04-22 19:32 50.29633 8.68873 31334 ft 458 kts 160°
2026-04-22 19:32 50.23508 8.71738 31333 ft 459 kts 160°
2026-04-22 19:33 50.17384 8.74587 31328 ft 460 kts 160°
2026-04-22 19:33 50.11251 8.77434 31329 ft 460 kts 160°
2026-04-22 19:34 50.05115 8.80304 31330 ft 460 kts 159°
2026-04-22 19:34 49.99115 8.83663 31328 ft 458 kts 155°
2026-04-22 19:35 49.93420 8.87987 31322 ft 453 kts 142°
2026-04-22 19:35 49.88722 8.94372 31321 ft 447 kts 128°
2026-04-22 19:36 49.84572 9.01557 31321 ft 447 kts 129°
2026-04-22 19:36 49.80426 9.08745 31320 ft 447 kts 128°
2026-04-22 19:37 49.76291 9.15939 31318 ft 447 kts 128°
2026-04-22 19:37 49.72137 9.23183 31320 ft 447 kts 128°
2026-04-22 19:38 49.68050 9.30432 31294 ft 448 kts 128°
2026-04-22 19:38 49.63946 9.37726 31289 ft 451 kts 128°
2026-04-22 19:39 49.59807 9.45033 31290 ft 453 kts 128°
2026-04-22 19:39 49.55647 9.52336 31293 ft 454 kts 128°
2026-04-22 19:40 49.51474 9.59640 31300 ft 455 kts 128°
2026-04-22 19:40 49.47291 9.66943 31304 ft 455 kts 128°
2026-04-22 19:41 49.43104 9.74241 31309 ft 455 kts 128°
2026-04-22 19:41 49.38916 9.81520 31310 ft 455 kts 128°
2026-04-22 19:42 49.34724 9.88782 31315 ft 455 kts 128°
2026-04-22 19:42 49.30519 9.96030 31315 ft 455 kts 128°
2026-04-22 19:43 49.24170 10.06908 31323 ft 454 kts 128°
2026-04-22 19:43 49.22090 10.10464 30910 ft 454 kts 128°
2026-04-22 19:43 49.20001 10.14031 30597 ft 446 kts 128°
2026-04-22 19:44 49.17942 10.17544 30353 ft 443 kts 128°
2026-04-22 19:44 49.15893 10.21046 30070 ft 441 kts 128°
2026-04-22 19:44 49.13853 10.24529 29786 ft 436 kts 128°
2026-04-22 19:44 49.11825 10.27900 29490 ft 429 kts 129°
2026-04-22 19:45 49.09771 10.31229 28470 ft 432 kts 130°
2026-04-22 19:45 49.07715 10.34502 28021 ft 422 kts 130°
2026-04-22 19:45 49.05696 10.37694 27483 ft 415 kts 130°
2026-04-22 19:45 49.03713 10.40830 26685 ft 407 kts 130°
2026-04-22 19:46 49.01766 10.43923 25732 ft 402 kts 130°
2026-04-22 19:46 48.99848 10.46983 24811 ft 397 kts 130°
2026-04-22 19:46 48.97955 10.50009 23933 ft 393 kts 130°
2026-04-22 19:46 48.96083 10.53002 22951 ft 389 kts 130°
2026-04-22 19:47 48.94225 10.55964 22052 ft 385 kts 130°
2026-04-22 19:47 48.92362 10.58930 21200 ft 380 kts 130°
2026-04-22 19:47 48.91155 10.60848 20644 ft 378 kts 130°
2026-04-22 19:47 48.88762 10.64644 19555 ft 373 kts 130°
2026-04-22 19:48 48.86979 10.67478 18747 ft 369 kts 130°
2026-04-22 19:48 48.85194 10.70312 17998 ft 372 kts 130°
2026-04-22 19:48 48.83406 10.73145 17429 ft 369 kts 130°
2026-04-22 19:48 48.81637 10.75937 16883 ft 365 kts 130°
2026-04-22 19:49 48.79888 10.78692 16359 ft 361 kts 130°
2026-04-22 19:49 48.78149 10.81426 15856 ft 359 kts 130°
2026-04-22 19:49 48.76423 10.84138 15360 ft 356 kts 130°
2026-04-22 19:49 48.74706 10.86828 14853 ft 354 kts 131°
2026-04-22 19:50 48.72999 10.89498 14369 ft 351 kts 131°
2026-04-22 19:50 48.71309 10.92141 13955 ft 344 kts 131°
2026-04-22 19:50 48.69683 10.94677 13813 ft 327 kts 131°
2026-04-22 19:50 48.68134 10.97085 13676 ft 311 kts 130°
2026-04-22 19:51 48.66654 10.99383 13420 ft 301 kts 130°
2026-04-22 19:51 48.65203 11.01637 12991 ft 297 kts 130°
2026-04-22 19:51 48.63773 11.03868 12533 ft 295 kts 130°
2026-04-22 19:51 48.62350 11.06081 12076 ft 292 kts 130°
2026-04-22 19:52 48.60936 11.08274 11594 ft 290 kts 130°
2026-04-22 19:52 48.59534 11.10452 11159 ft 288 kts 130°
2026-04-22 19:52 48.58117 11.12596 10737 ft 288 kts 135°
2026-04-22 19:52 48.56507 11.14404 10347 ft 290 kts 143°
2026-04-22 19:53 48.54830 11.16104 9935 ft 289 kts 142°
2026-04-22 19:53 48.53328 11.18033 9497 ft 279 kts 127°
2026-04-22 19:53 48.52584 11.19632 9217 ft 273 kts 115°
2026-04-22 19:53 48.51919 11.22247 8794 ft 264 kts 101°
2026-04-22 19:54 48.51286 11.25727 8290 ft 254 kts 104°
2026-04-22 19:54 48.50943 11.27417 8101 ft 245 kts 104°
2026-04-22 19:54 48.50400 11.29802 7821 ft 239 kts 114°
2026-04-22 19:54 48.49292 11.31645 7537 ft 242 kts 146°
2026-04-22 19:55 48.47680 11.32349 7264 ft 247 kts 178°
2026-04-22 19:55 48.46009 11.31750 6991 ft 250 kts 201°
2026-04-22 19:55 48.44426 11.30657 6726 ft 250 kts 204°
2026-04-22 19:55 48.42785 11.29937 6432 ft 245 kts 181°
2026-04-22 19:56 48.41090 11.29939 6143 ft 243 kts 175°
2026-04-22 19:56 48.39407 11.30042 5847 ft 241 kts 174°
2026-04-22 19:56 48.37730 11.30165 5483 ft 240 kts 173°
2026-04-22 19:56 48.36188 11.30908 5126 ft 229 kts 141°
2026-04-22 19:57 48.35216 11.32603 4991 ft 210 kts 117°
2026-04-22 19:57 48.34517 11.34502 5000 ft 207 kts 115°
2026-04-22 19:57 48.33852 11.36416 5002 ft 204 kts 114°
2026-04-22 19:57 48.33365 11.38322 4997 ft 188 kts 96°
2026-04-22 19:58 48.33381 11.40246 5001 ft 183 kts 81°
2026-04-22 19:58 48.33537 11.42143 5004 ft 183 kts 81°
2026-04-22 19:58 48.33691 11.44043 5007 ft 183 kts 81°
2026-04-22 19:58 48.33844 11.45941 5007 ft 183 kts 81°
2026-04-22 19:59 48.33997 11.47842 5009 ft 183 kts 81°
2026-04-22 20:00 48.34820 11.58189 3981 ft 151 kts 81°
2026-04-22 20:00 48.34940 11.59712 3790 ft 143 kts 81°
2026-04-22 20:01 48.35056 11.61172 3599 ft 139 kts 81°
2026-04-22 20:01 48.35169 11.62606 3409 ft 137 kts 81°
2026-04-22 20:01 48.35281 11.64031 3220 ft 137 kts 82°
2026-04-22 20:01 48.35393 11.65454 3036 ft 137 kts 82°
2026-04-22 20:02 48.35504 11.66871 2849 ft 137 kts 82°
2026-04-22 20:02 48.35616 11.68292 2667 ft 137 kts 82°
2026-04-22 20:02 48.35710 11.69505 2499 ft 137 kts 82°
2026-04-22 20:02 48.35823 11.70939 2300 ft 138 kts 82°
2026-04-22 20:03 48.35934 11.72373 2102 ft 139 kts 83°
2026-04-22 20:03 48.36053 11.73810 1906 ft 139 kts 83°
2026-04-22 20:03 48.36163 11.75194 1737 ft 139 kts 84°
2026-04-22 20:03 48.36263 11.76496 1607 ft 138 kts 84°